BGSFBGGH

Guest
Details From BGSF - Kangerlussuaq
To BGGH - Nuuk
Flight Number -
Tags decoded
Created
Modified
Stats Distance 376 nm / 697 km
Max Altitude 0 ft / 0 m
Waypoints 4
Social Downloads 0
Likes 0
Share VATSIM

Download

Looking for another format? Having issues loading an existing format? Contact us
Advertisement - Login to hide

Notes

Requested: BGSF KU MA SUBUD EDERI HB KUKAK DOBOB ABIBA DA BGGH Unmatched points: SUBUD EDERI KUKAK DOBOB ABIBA

Route

BGSF MA HB BGGH

ID Type Via Altitude (ft/m) Position (lat/lon) Dist (leg/tot) Name
O BGSF APT - 0 / 0 67.01160 / -50.71472 - / 0 nm Kangerlussuaq
MA NDB - 0 / 0 65.40667 / -52.92100 110 / 110 nm MANIITSOQ NDB
HB NDB - 0 / 0 66.93583 / -53.69917 93 / 203 nm HOLSTEINSBORG NDB
O BGGH APT - 0 / 0 64.19302 / -51.67645 172 / 376 nm Nuuk

Altitude Profile

Advertisement - Login to hide

Weather


0- 5 10 15 20 25 30 35+ Temperature / °C

Clouds and Precipitation
Forecast for 2018-12-15 00:00 UTC. Updated 5 hours ago

Ground ~20,000 ft ~40,000 ft Winds

BGSF

Details ICAO BGSF (SFJ)
Name Kangerlussuaq
Region Greenland
Timezone America/Godthab (UTC-3.0)
Stats Elevation 165 ft / 50 m (AMSL)
Location 67.017000° -50.689300°
Runways 1
Magnetic Variation 28.627° W

METAR

BGSF 150150Z AUTO 05004KT 9999NDV FEW200/// M23/M25 Q0995

Decode

TAF

Not found

Departure Runways

ID Width Length Bearing (true/mag) Surface Threshold Overrun Markings Lighting
10 197 ft / 60 m 9,171 ft / 2,795 m 61.58° / 90.21° ASPHALT 0 ft / 0 m 489 ft / 149 m PREC-APP EDGE THRESHOLD SSALR REIL-OMNI
28 197 ft / 60 m 9,171 ft / 2,795 m 241.63° / 270.26° ASPHALT 0 ft / 0 m 164 ft / 50 m PREC-APP EDGE THRESHOLD SSALF TDZ REIL-OMNI

BGGH

Details ICAO BGGH (GOH)
Name Nuuk - Godthab
Region Greenland
Timezone America/Godthab (UTC-3.0)
Stats Elevation 283 ft / 86 m (AMSL)
Location 64.190900° -51.678100°
Runways 1
Magnetic Variation 26.659° W

METAR

BGGH 150150Z AUTO 10004KT 9999NDV BKN056/// M04/M06 Q0989

Decode

TAF

Not found

Destination Runways

ID Width Length Bearing (true/mag) Surface Threshold Overrun Markings Lighting
05 98 ft / 30 m 3,120 ft / 951 m 19.56° / 46.21° CONCRETE 0 ft / 0 m 0 ft / 0 m APP EDGE THRESHOLD
23 98 ft / 30 m 3,120 ft / 951 m 199.56° / 226.22° CONCRETE 0 ft / 0 m 0 ft / 0 m APP EDGE THRESHOLD MALSR

Popular Alternatives